Location: Gunung Kajang
(2.4167°N, 113.7167°E)
Time: 17:40:11
(UTC+00:00)

Ariane H10 - Pass Details

Date: 29 May 2022
Orbit: 376 x 30619 km, 7.2° (Epoch: 06 July)

Event Time Altitude Azimuth Distance (km) Brightness Sun altitude
Exits shadow 21:45:34 - 259° (W) 2,270 4.8 -7.7°
Reaches altitude 10° 21:45:58 10° 257° (WSW) 2,063 4.6 -7.6°
Maximum altitude 21:49:15 29° 193° (SSW) 786 2.8 -6.8°
Drops below altitude 10° 21:51:26 10° 127° (SE) 1,365 4.8 -6.3°
Sets 21:53:27 0° 112° (ESE) 2,375 6.3 -5.9°
